Flag for Taiwan Weather past 2 weeks in Kaohsiung, Taiwan

Now
72 °F

Scattered clouds.


Feels Like: 74 °F
Forecast: 58 / 72 °F
Wind: 14 mph from West

Location: Kaohsiung International Airport

Current Time: Dec 28, 2014 at 4:09:35 PM

Latest Report: Dec 28, 2014 at 3:30 PM


Visibility: 4 mi

Pressure: 29.98 "Hg

Humidity: 73%

Dew point: 63 °F

Location of KaohsiungLocation

Historic Weather in Kaohsiung — Graph

°F

Kaohsiung temperature yesterday

Maximum temperature yesterday: 77 °F (at 1:00 PM)
Minimum temperature yesterday: 64 °F (at 4:00 AM)
Average temperature yesterday: 69 °F

Past Weeks' High & Low Weather Summary

 TemperatureHumidityPressure
High82 °F (Dec 24, 1:00 PM)94% (Dec 20, 4:00 AM)30.30 "Hg (Dec 20, 4:00 AM)
Low55 °F (Dec 22, 5:00 AM)34% (Dec 24, 3:00 PM)29.98 "Hg (Dec 28, 2:30 PM)
Average68 °F68%30.14 "Hg
* Reported Dec 13 3:00 PM — Dec 28 3:00 PM, Kaohsiung, Weather by CustomWeather, © 2014

Note: Actual official high and low records may vary slightly from our data, if they occured in-between our weather recording intervals... More about our weather records

Advertising

Kaohsiung weather history for previous 24 hours

 ConditionsComfort  
Time TempWeatherWind HumidityBarometerVisibility
3:00 PM
Dec 28
73 °FScattered clouds.12 mph69%29.98 "Hg4 mi
2:30 PM75 °FPassing clouds.12 mph65%29.98 "Hg4 mi
2:00 PM73 °FPassing clouds.10 mph69%30.01 "Hg4 mi
1:30 PM77 °FScattered clouds.5 mph61%30.01 "HgN/A
1:00 PM73 °FBroken clouds.6 mph69%30.04 "HgN/A
12:30 PM72 °FBroken clouds.10 mph73%30.04 "HgN/A
11:30 AM70 °FPartly sunny.9 mph73%30.09 "Hg4 mi
11:00 AM72 °FPartly sunny.10 mph69%30.12 "Hg4 mi
10:30 AM72 °FBroken clouds.10 mph69%30.12 "Hg3 mi
10:00 AM70 °FBroken clouds.8 mph73%30.12 "Hg3 mi
9:30 AM66 °FFog.9 mph83%30.12 "Hg2 mi
9:00 AM64 °FFog.10 mph88%30.12 "Hg2 mi
8:30 AM64 °FFog.8 mph88%30.12 "Hg1 mi
8:00 AM64 °FFog.8 mph88%30.12 "Hg1 mi
7:30 AM64 °FFog.6 mph88%30.12 "Hg1 mi
7:00 AM64 °FFog.6 mph88%30.12 "Hg1 mi
6:30 AM64 °FFog.5 mph88%30.09 "Hg1 mi
6:00 AM64 °FFog.6 mph88%30.09 "Hg1 mi
5:00 AM64 °FFog.5 mph88%30.09 "Hg1 mi
4:00 AM63 °FFog.8 mph94%30.09 "Hg1 mi
3:00 AM63 °FFog.8 mph94%30.09 "Hg1 mi
2:55 AM63 °FFog.8 mph94%30.09 "Hg1 mi
2:00 AM64 °FFog.5 mph88%30.09 "Hg2 mi
1:00 AM64 °FFog.3 mph88%30.09 "Hg2 mi
12:00 AM64 °FFog.2 mph88%30.09 "Hg2 mi
11:30 PM
Dec 27
66 °FFog.3 mph83%30.12 "Hg2 mi
11:00 PM66 °FFog.6 mph83%30.12 "Hg2 mi
10:30 PM66 °FFog.5 mph83%30.12 "Hg2 mi
10:00 PM66 °FFog.6 mph83%30.12 "Hg3 mi
9:30 PM66 °FFog.5 mph83%30.12 "Hg2 mi
9:00 PM66 °FFog.3 mph83%30.12 "Hg2 mi
8:30 PM66 °FFog.5 mph83%30.12 "Hg2 mi
8:00 PM66 °FFog.7 mph83%30.12 "Hg2 mi
7:30 PM66 °FFog.7 mph83%30.12 "Hg2 mi
7:00 PM66 °FPartly cloudy.9 mph83%30.12 "Hg3 mi
6:30 PM66 °FPartly cloudy.10 mph83%30.12 "Hg4 mi
6:00 PM68 °FPassing clouds.10 mph73%30.12 "Hg4 mi
5:30 PM68 °FPassing clouds.10 mph78%30.12 "Hg4 mi
5:00 PM70 °FPartly sunny.13 mph73%30.09 "Hg4 mi
4:30 PM72 °FPartly sunny.9 mph69%30.09 "Hg4 mi
4:00 PM72 °FPartly sunny.7 mph69%30.09 "Hg4 mi
Weather by CustomWeather, © 2014

See weather overviewHow to use our weather pages